| time (UTC) | temp F | wind direction | speed knots | gust knots | rain 1hr in | rain 24hr in | rain mn in | humidity % | barometer mb |
| 20260510070039 | 53 | 76 | 1.7 | 5.2 | 0.00 | 0.00 | 0.00 | 79 | 1012.9 |
| 20260510064537 | 53 | 63 | 1.7 | 5.2 | 0.00 | 0.00 | 0.00 | 79 | 1012.9 |
| 20260510063037 | 53 | 41 | 1.7 | 5.2 | 0.00 | 0.00 | 0.00 | 78 | 1013.0 |
| 20260510061536 | 54 | 39 | 1.7 | 6.1 | 0.00 | 0.00 | 0.00 | 77 | 1013.0 |
| 20260510060031 | 54 | 163 | 2.6 | 5.2 | 0.00 | 0.00 | 0.00 | 77 | 1013.0 |
| 20260510054536 | 54 | 62 | 1.7 | 7.8 | 0.00 | 0.00 | 0.00 | 76 | 1013.2 |
| 20260510053038 | 54 | 133 | 1.7 | 7.0 | 0.00 | 0.00 | 0.00 | 76 | 1013.4 |
| 20260510051536 | 54 | 53 | 1.7 | 6.1 | 0.00 | 0.00 | 0.00 | 75 | 1013.4 |
| 20260510050035 | 54 | 74 | 1.7 | 6.1 | 0.00 | 0.00 | 0.00 | 75 | 1013.5 |
| 20260510044534 | 54 | 74 | 1.7 | 6.1 | 0.00 | 0.00 | 0.00 | 74 | 1013.4 |
| 20260510043039 | 54 | 92 | 1.7 | 5.2 | 0.00 | 0.00 | 0.00 | 73 | 1013.2 |
| 20260510041534 | 54 | 63 | 1.7 | 4.3 | 0.00 | 0.00 | 0.00 | 72 | 1012.8 |
| 20260510040034 | 54 | 97 | 1.7 | 5.2 | 0.00 | 0.00 | 0.00 | 71 | 1012.9 |
| 20260510034542 | 55 | 101 | 1.7 | 6.1 | 0.00 | 0.00 | 0.00 | 70 | 1013.0 |
| 20260510033035 | 55 | 94 | 1.7 | 6.1 | 0.00 | 0.00 | 0.00 | 70 | 1012.7 |
| 20260510031535 | 55 | 140 | 1.7 | 6.1 | 0.00 | 0.00 | 0.00 | 69 | 1012.5 |
| 20260510030037 | 56 | 68 | 0.9 | 3.5 | 0.00 | 0.00 | 0.00 | 68 | 1012.5 |
| 20260510024538 | 56 | 84 | 1.7 | 3.5 | 0.00 | 0.00 | 0.00 | 68 | 1012.7 |
| 20260510023036 | 57 | 79 | 1.7 | 5.2 | 0.00 | 0.00 | 0.00 | 67 | 1012.5 |
| 20260510021535 | 57 | 58 | 1.7 | 4.3 | 0.00 | 0.00 | 0.00 | 66 | 1012.4 |
| 20260510020038 | 57 | 82 | 0.0 | 3.5 | 0.00 | 0.00 | 0.00 | 65 | 1012.4 |
| 20260510014541 | 58 | 0 | 0.9 | 4.3 | 0.00 | 0.00 | 0.00 | 64 | 1012.2 |
| 20260510013033 | 58 | 66 | 0.9 | 4.3 | 0.00 | 0.00 | 0.00 | 63 | 1012.0 |
| 20260510011541 | 58 | 41 | 0.9 | 4.3 | 0.00 | 0.00 | 0.00 | 63 | 1011.7 |
| 20260510010036 | 58 | 146 | 0.0 | 3.5 | 0.00 | 0.00 | 0.00 | 63 | 1011.4 |
| 20260510004537 | 58 | 74 | 0.9 | 3.5 | 0.00 | 0.00 | 0.00 | 63 | 1010.9 |
| 20260510003031 | 59 | 45 | 0.9 | 4.3 | 0.00 | 0.00 | 0.00 | 62 | 1010.7 |
| 20260510001537 | 59 | 117 | 0.9 | 3.5 | 0.00 | 0.00 | 0.00 | 62 | 1010.7 |
| 20260510000056 | 59 | 32 | 1.7 | 5.2 | 0.00 | 0.00 | 0.00 | 61 | 1010.7 |
| 20260509234548 | 60 | 99 | 0.9 | 3.5 | 0.00 | 0.00 | 0.00 | 60 | 1010.6 |
| 20260509233035 | 60 | 0 | 0.9 | 5.2 | 0.00 | 0.00 | 0.00 | 59 | 1010.4 |
| 20260509231532 | 60 | 166 | 0.0 | 2.6 | 0.00 | 0.00 | 0.00 | 60 | 1010.4 |
| 20260509230037 | 61 | 203 | 0.9 | 7.8 | 0.00 | 0.00 | 0.00 | 59 | 1010.7 |
| 20260509224535 | 61 | 177 | 2.6 | 7.0 | 0.00 | 0.00 | 0.00 | 57 | 1010.6 |
| 20260509223036 | 62 | 29 | 0.9 | 7.0 | 0.00 | 0.00 | 0.00 | 57 | 1010.7 |
| 20260509221535 | 62 | 269 | 1.7 | 7.0 | 0.00 | 0.00 | 0.00 | 57 | 1010.8 |
| 20260509220036 | 62 | 143 | 0.9 | 3.5 | 0.00 | 0.00 | 0.00 | 59 | 1010.9 |
| 20260509214536 | 62 | 344 | 0.0 | 4.3 | 0.00 | 0.00 | 0.00 | 61 | 1010.8 |
| 20260509213040 | 62 | 314 | 0.0 | 3.5 | 0.00 | 0.00 | 0.00 | 57 | 1010.8 |
| 20260509211539 | 63 | 3 | 0.0 | 2.6 | 0.00 | 0.00 | 0.00 | 58 | 1010.4 |
| 20260509210042 | 63 | 35 | 1.7 | 12.2 | 0.00 | 0.00 | 0.00 | 53 | 1010.2 |
| 20260509204541 | 62 | 307 | 0.0 | 5.2 | 0.00 | 0.00 | 0.00 | 56 | 1010.3 |
| 20260509203036 | 62 | 313 | 0.9 | 2.6 | 0.00 | 0.00 | 0.00 | 55 | 1010.2 |
| 20260509201538 | 62 | 316 | 2.6 | 7.0 | 0.00 | 0.00 | 0.00 | 54 | 1010.2 |
| 20260509200041 | 63 | 324 | 1.7 | 5.2 | 0.00 | 0.00 | 0.00 | 51 | 1010.0 |
| 20260509194538 | 63 | 0 | 0.9 | 7.0 | 0.00 | 0.00 | 0.00 | 52 | 1010.2 |
| 20260509193036 | 64 | 22 | 2.6 | 5.2 | 0.00 | 0.00 | 0.00 | 50 | 1010.2 |
| 20260509191536 | 63 | 307 | 0.9 | 5.2 | 0.00 | 0.00 | 0.00 | 50 | 1010.3 |
| 20260509190036 | 63 | 27 | 2.6 | 9.6 | 0.00 | 0.00 | 0.00 | 47 | 1010.2 |
| 20260509184553 | 63 | 182 | 0.9 | 11.3 | 0.00 | 0.00 | 0.00 | 50 | 1010.2 |
| 20260509183035 | 63 | 2 | 1.7 | 8.7 | 0.00 | 0.00 | 0.00 | 52 | 1010.1 |
| 20260509181539 | 62 | 151 | 2.6 | 9.6 | 0.00 | 0.00 | 0.00 | 54 | 1010.1 |
| 20260509180035 | 62 | 0 | 0.9 | 7.8 | 0.00 | 0.00 | 0.00 | 54 | 1010.2 |
| 20260509174537 | 61 | 145 | 4.3 | 11.3 | 0.00 | 0.00 | 0.00 | 54 | 1010.2 |
| 20260509173038 | 62 | 141 | 4.3 | 15.6 | 0.00 | 0.00 | 0.00 | 54 | 1010.4 |
| 20260509171537 | 61 | 116 | 3.5 | 11.3 | 0.00 | 0.00 | 0.00 | 53 | 1010.6 |
| 20260509170038 | 60 | 162 | 2.6 | 8.7 | 0.00 | 0.00 | 0.00 | 56 | 1010.7 |
| 20260509164534 | 58 | 99 | 0.9 | 7.0 | 0.00 | 0.00 | 0.00 | 59 | 1010.8 |
| 20260509163035 | 58 | 83 | 1.7 | 6.1 | 0.00 | 0.00 | 0.00 | 57 | 1010.8 |
| 20260509161533 | 57 | 0 | 0.9 | 3.5 | 0.00 | 0.00 | 0.00 | 58 | 1010.9 |
| 20260509160040 | 56 | 167 | 0.0 | 3.5 | 0.00 | 0.00 | 0.00 | 60 | 1010.8 |
| 20260509154535 | 56 | 0 | 0.9 | 3.5 | 0.00 | 0.00 | 0.00 | 60 | 1010.9 |
| 20260509153043 | 56 | 354 | 1.7 | 3.5 | 0.00 | 0.00 | 0.00 | 60 | 1011.3 |
| 20260509151536 | 56 | 313 | 0.0 | 2.6 | 0.00 | 0.00 | 0.00 | 59 | 1011.3 |
| 20260509150040 | 56 | 357 | 0.9 | 2.6 | 0.00 | 0.00 | 0.00 | 58 | 1011.3 |
| 20260509144549 | 58 | 359 | 0.9 | 2.6 | 0.00 | 0.00 | 0.00 | 56 | 1011.1 |
| 20260509143036 | 57 | 0 | 0.0 | 1.7 | 0.00 | 0.00 | 0.00 | 58 | 1010.9 |
| 20260509141538 | 56 | 326 | 0.0 | 1.7 | 0.00 | 0.00 | 0.00 | 64 | 1010.9 |
| 20260509140037 | 55 | 0 | 0.0 | 2.6 | 0.00 | 0.00 | 0.00 | 67 | 1010.7 |
| 20260509134553 | 53 | 22 | 0.9 | 2.6 | 0.00 | 0.00 | 0.00 | 66 | 1010.8 |
| 20260509133043 | 53 | 311 | 0.9 | 1.7 | 0.00 | 0.00 | 0.00 | 66 | 1010.9 |
| 20260509131537 | 53 | 340 | 0.9 | 1.7 | 0.00 | 0.00 | 0.00 | 66 | 1011.1 |
| 20260509130051 | 52 | 284 | 0.0 | 1.7 | 0.00 | 0.00 | 0.00 | 67 | 1010.9 |
| 20260509124537 | 51 | 0 | 0.0 | 1.7 | 0.00 | 0.00 | 0.00 | 68 | 1010.8 |
| 20260509123032 | 51 | 0 | 0.0 | 1.7 | 0.00 | 0.00 | 0.00 | 69 | 1010.9 |
| 20260509121544 | 50 | 190 | 0.9 | 2.6 | 0.00 | 0.00 | 0.00 | 69 | 1010.9 |
| 20260509120035 | 50 | 0 | 0.0 | 3.5 | 0.00 | 0.00 | 0.00 | 68 | 1011.1 |
| 20260509114538 | 50 | 0 | 0.0 | 0.9 | 0.00 | 0.00 | 0.00 | 70 | 1011.3 |
| 20260509113039 | 49 | 0 | 0.0 | 1.7 | 0.00 | 0.00 | 0.00 | 69 | 1011.2 |
| 20260509111545 | 49 | 0 | 0.0 | 0.9 | 0.00 | 0.00 | 0.00 | 69 | 1011.2 |
| 20260509110036 | 49 | 0 | 0.0 | 0.0 | 0.00 | 0.00 | 0.00 | 67 | 1011.2 |
| 20260509104543 | 49 | 0 | 0.0 | 0.0 | 0.00 | 0.00 | 0.00 | 67 | 1011.1 |
| 20260509103038 | 50 | 0 | 0.0 | 0.0 | 0.00 | 0.00 | 0.00 | 65 | 1010.9 |
| 20260509101606 | 50 | 0 | 0.0 | 1.7 | 0.00 | 0.00 | 0.00 | 65 | 1011.0 |
| 20260509100040 | 51 | 355 | 2.6 | 3.5 | 0.00 | 0.00 | 0.00 | 63 | 1011.0 |
| 20260509094539 | 52 | 139 | 0.9 | 3.5 | 0.00 | 0.00 | 0.00 | 56 | 1010.8 |
| 20260509093037 | 53 | 115 | 0.9 | 6.1 | 0.00 | 0.00 | 0.00 | 55 | 1010.8 |
| 20260509091541 | 53 | 157 | 0.9 | 6.1 | 0.00 | 0.00 | 0.00 | 55 | 1011.0 |
| 20260509090039 | 53 | 101 | 1.7 | 5.2 | 0.00 | 0.00 | 0.00 | 55 | 1011.1 |
| 20260509084537 | 53 | 107 | 1.7 | 6.1 | 0.00 | 0.00 | 0.00 | 55 | 1011.1 |
| 20260509083035 | 53 | 102 | 1.7 | 7.0 | 0.00 | 0.00 | 0.00 | 55 | 1011.1 |
| 20260509081541 | 53 | 133 | 2.6 | 6.1 | 0.00 | 0.00 | 0.00 | 54 | 1011.3 |
| 20260509080037 | 53 | 103 | 1.7 | 7.0 | 0.00 | 0.00 | 0.00 | 53 | 1011.3 |
| 20260509074543 | 53 | 129 | 1.7 | 7.0 | 0.00 | 0.00 | 0.00 | 53 | 1011.2 |
| 20260509073033 | 53 | 198 | 2.6 | 7.8 | 0.00 | 0.00 | 0.00 | 53 | 1011.3 |
| 20260509071532 | 53 | 122 | 3.5 | 7.0 | 0.00 | 0.00 | 0.00 | 54 | 1011.2 |